NOZ1972 EPKK-ENBR

Flight info

Callsign NOZ1972
Flight time N/A
Altitude 36000
Route LUMVE L619 NUDRO T710 VAGON DCT KELOD DCT BINKA DCT SONAL DCT NERDO DCT PESUR
Aircraft B738/M-SDE2E3FGHIRWXY/LB1

Departure

Time N/A
Airport Kraków John Paul II International Airport (EPKK)

Arrival

Time 2026-05-04 22:04
Airport Bergen Airport, Flesland (ENBR)
Time Latitude Longitude Altitude Speed Heading
2026-05-04 21:42 60.06685 6.79811 18123 ft 307 kts 317°
2026-05-04 21:42 60.08507 6.77620 17694 ft 303 kts 317°
2026-05-04 21:42 60.10303 6.75457 17281 ft 300 kts 318°
2026-05-04 21:43 60.12079 6.73313 16884 ft 296 kts 318°
2026-05-04 21:43 60.13827 6.71203 16530 ft 293 kts 318°
2026-05-04 21:43 60.15573 6.69090 16149 ft 293 kts 319°
2026-05-04 21:43 60.17329 6.66962 15777 ft 296 kts 319°
2026-05-04 21:44 60.19098 6.64809 15376 ft 304 kts 320°
2026-05-04 21:44 60.20920 6.62593 14983 ft 308 kts 320°
2026-05-04 21:44 60.22528 6.59873 14548 ft 296 kts 302°
2026-05-04 21:44 60.23471 6.56286 14174 ft 285 kts 289°
2026-05-04 21:45 60.24022 6.52495 13774 ft 279 kts 279°
2026-05-04 21:45 60.24071 6.48633 13366 ft 275 kts 269°
2026-05-04 21:45 60.23948 6.44821 12966 ft 272 kts 269°
2026-05-04 21:45 60.23832 6.41015 12544 ft 273 kts 269°
2026-05-04 21:46 60.23717 6.37199 12176 ft 275 kts 269°
2026-05-04 21:46 60.23601 6.33322 11752 ft 282 kts 269°
2026-05-04 21:46 60.23487 6.29301 11311 ft 290 kts 269°
2026-05-04 21:46 60.23366 6.25293 10885 ft 290 kts 269°
2026-05-04 21:47 60.23244 6.21262 10546 ft 287 kts 269°
2026-05-04 21:47 60.23123 6.17336 10419 ft 276 kts 269°
2026-05-04 21:47 60.23006 6.13550 10303 ft 265 kts 269°
2026-05-04 21:47 60.22895 6.09918 10188 ft 255 kts 269°
2026-05-04 21:48 60.22788 6.06427 10081 ft 246 kts 269°
2026-05-04 21:48 60.22684 6.03057 9976 ft 237 kts 269°
2026-05-04 21:48 60.22584 5.99802 9813 ft 231 kts 269°
2026-05-04 21:48 60.22485 5.96599 9554 ft 227 kts 269°
2026-05-04 21:49 60.22385 5.93442 9266 ft 225 kts 269°
2026-05-04 21:49 60.22284 5.90297 9034 ft 228 kts 269°
2026-05-04 21:49 60.22181 5.87050 8749 ft 236 kts 269°
2026-05-04 21:49 60.21873 5.83762 8450 ft 247 kts 250°
2026-05-04 21:50 60.20967 5.80811 8233 ft 245 kts 241°
2026-05-04 21:50 60.20093 5.77984 8140 ft 232 kts 244°
2026-05-04 21:50 60.19296 5.75242 8043 ft 222 kts 245°
2026-05-04 21:50 60.18362 5.72820 7915 ft 223 kts 220°
2026-05-04 21:51 60.16897 5.71875 7887 ft 227 kts 185°
2026-05-04 21:51 60.15311 5.72308 7933 ft 240 kts 168°
2026-05-04 21:51 60.13671 5.73437 7961 ft 256 kts 163°
2026-05-04 21:51 60.11973 5.74652 7954 ft 260 kts 171°
2026-05-04 21:52 60.10207 5.74765 7961 ft 250 kts 191°
2026-05-04 21:52 60.08490 5.74562 7944 ft 252 kts 186°
2026-05-04 21:52 60.06742 5.74475 7887 ft 251 kts 191°
2026-05-04 21:52 60.05085 5.73518 7699 ft 246 kts 209°
2026-05-04 21:53 60.03493 5.72205 7444 ft 248 kts 206°
2026-05-04 21:53 60.01889 5.71024 7296 ft 244 kts 207°
2026-05-04 21:53 60.00439 5.69400 7061 ft 234 kts 227°
2026-05-04 21:53 59.99267 5.67200 6861 ft 231 kts 227°
2026-05-04 21:54 59.98043 5.65110 6694 ft 231 kts 225°
2026-05-04 21:54 59.96824 5.63027 6528 ft 228 kts 231°
2026-05-04 21:54 59.95991 5.60418 6357 ft 221 kts 250°
2026-05-04 21:54 59.95319 5.57649 6179 ft 223 kts 248°
2026-05-04 21:55 59.94912 5.54727 5952 ft 217 kts 277°
2026-05-04 21:55 59.95171 5.52847 5877 ft 212 kts 299°
2026-05-04 21:55 59.96084 5.50641 5705 ft 212 kts 320°
2026-05-04 21:55 59.97386 5.49259 5509 ft 216 kts 341°
2026-05-04 21:56 59.98832 5.48449 5336 ft 216 kts 340°
2026-05-04 21:56 60.00272 5.47544 5147 ft 218 kts 340°
2026-05-04 21:56 60.01729 5.46631 4957 ft 220 kts 340°
2026-05-04 21:56 60.03188 5.45721 4769 ft 218 kts 341°
2026-05-04 21:57 60.04628 5.44823 4563 ft 214 kts 341°
2026-05-04 21:57 60.06040 5.43940 4391 ft 212 kts 341°
2026-05-04 21:57 60.07434 5.43069 4231 ft 206 kts 340°
2026-05-04 21:57 60.08750 5.42146 4051 ft 195 kts 330°
2026-05-04 21:58 60.09612 5.40229 3873 ft 183 kts 289°
2026-05-04 21:58 60.09884 5.37769 3767 ft 185 kts 282°
2026-05-04 21:58 60.10142 5.35224 3595 ft 183 kts 282°
2026-05-04 21:58 60.10384 5.32772 3423 ft 180 kts 282°
2026-05-04 21:59 60.10630 5.30329 3278 ft 176 kts 288°
2026-05-04 21:59 60.11244 5.28321 3097 ft 169 kts 328°
2026-05-04 21:59 60.12332 5.27823 3083 ft 159 kts 353°
2026-05-04 21:59 60.13402 5.27339 3024 ft 156 kts 338°
2026-05-04 22:00 60.14442 5.26778 2997 ft 156 kts 348°
2026-05-04 22:00 60.15525 5.26440 2840 ft 159 kts 348°
2026-05-04 22:00 60.16614 5.26090 2620 ft 157 kts 348°
2026-05-04 22:00 60.17676 5.25738 2398 ft 150 kts 348°
2026-05-04 22:01 60.18709 5.25390 2203 ft 152 kts 348°
2026-05-04 22:01 60.19757 5.25037 1979 ft 151 kts 348°
2026-05-04 22:01 60.20769 5.24698 1757 ft 144 kts 349°
2026-05-04 22:01 60.21755 5.24366 1559 ft 144 kts 349°
2026-05-04 22:02 60.22735 5.24035 1367 ft 145 kts 349°
2026-05-04 22:02 60.23718 5.23704 1141 ft 142 kts 348°
2026-05-04 22:02 60.24673 5.23382 972 ft 135 kts 349°
2026-05-04 22:02 60.25596 5.23071 741 ft 133 kts 351°
2026-05-04 22:03 60.26496 5.22769 560 ft 132 kts 352°
2026-05-04 22:03 60.27403 5.22462 393 ft 134 kts 352°
2026-05-04 22:03 60.28309 5.22141 205 ft 129 kts 352°
2026-05-04 22:03 60.29122 5.21886 160 ft 94 kts 351°
2026-05-04 22:04 60.29557 5.21743 147 ft 43 kts 351°
2026-05-04 22:04 60.29689 5.21731 145 ft 15 kts 31°
2026-05-04 22:04 60.29721 5.21927 148 ft 15 kts 89°
2026-05-04 22:04 60.29645 5.22036 151 ft 14 kts 168°
2026-05-04 22:05 60.29550 5.22071 154 ft 14 kts 169°
2026-05-04 22:05 60.29459 5.22103 157 ft 13 kts 171°
2026-05-04 22:05 60.29365 5.22134 161 ft 16 kts 171°
2026-05-04 22:05 60.29250 5.22171 166 ft 17 kts 171°
2026-05-04 22:06 60.29141 5.22208 171 ft 16 kts 170°
2026-05-04 22:06 60.29080 5.22309 176 ft 11 kts 118°
2026-05-04 22:06 60.29031 5.22428 175 ft 12 kts 120°
2026-05-04 22:06 60.28983 5.22542 174 ft 9 kts 133°
2026-05-04 22:07 60.28969 5.22570 174 ft 1 kts 133°
2026-05-04 22:07 60.28968 5.22573 174 ft 0 kts 133°